When you browse on this site, cookies collect data to enhance your experience and personalize the content and advertising you see.
Visit our Privacy Policy to learn more. By continuing to use the site, you agree to this use of cookies and data.
  • In Hungary
  • List of Countries
  • For 7 days
  • Water Temperature
  • Satellite Maps
  • Weather Map
  • News
  • Weather Widgets
  • user-avatar
    Login

    Hourly Weather Oldham

    Today, 15 December, Saturday

    Time Temperature Precipitation Wind Pressure Humidity
    00:00 -3°C° 0 mm 6 mps 749 mmHg 79%
    01:00 -3°C° 0 mm 6 mps 748 mmHg 77%
    02:00 -2°C° 0 mm 7 mps 748 mmHg 74%
    03:00 -2°C° 0 mm 7 mps 747 mmHg 72%
    04:00 -3°C° 0 mm 7 mps 747 mmHg 73%
    05:00 -3°C° 0 mm 7 mps 746 mmHg 73%
    06:00 -4°C° 0 mm 8 mps 745 mmHg 74%
    07:00 -4°C° 0 mm 8 mps 745 mmHg 74%
    08:00 -4°C° 0 mm 8 mps 744 mmHg 75%
    09:00 -4°C° 0 mm 9 mps 744 mmHg 75%
    10:00 -4°C° 0 mm 9 mps 742 mmHg 75%
    11:00 -3°C° 0 mm 10 mps 741 mmHg 74%
    12:00 -3°C° 0 mm 10 mps 740 mmHg 71%
    13:00 -3°C° 0.8 mm 10 mps 738 mmHg 74%
    14:00 -3°C° 0.8 mm 10 mps 737 mmHg 78%
    15:00 -3°C° 0.8 mm 11 mps 735 mmHg 81%
    16:00 -2°C° 1.9 mm 11 mps 734 mmHg 83%
    17:00 -1°C° 1.9 mm 11 mps 732 mmHg 85%
    18:00 -1°C° 1.9 mm 11 mps 731 mmHg 87%
    19:00 +1°C° 0.3 mm 10 mps 730 mmHg 87%
    20:00 +2°C° 0.3 mm 9 mps 730 mmHg 87%
    21:00 +4°C° 0.3 mm 8 mps 729 mmHg 87%
    22:00 +4°C° 0.6 mm 8 mps 730 mmHg 85%
    23:00 +3°C° 0.6 mm 9 mps 731 mmHg 83%

    Tomorrow, 16 December, Sunday

    Time Temperature Precipitation Wind Pressure Humidity
    00:00 +3°C° 0.6 mm 9 mps 731 mmHg 81%
    01:00 +2°C° 0.2 mm 8 mps 732 mmHg 81%
    02:00 +3°C° 0.2 mm 7 mps 733 mmHg 80%
    03:00 +3°C° 0.2 mm 6 mps 734 mmHg 80%
    04:00 +3°C° 0 mm 5 mps 735 mmHg 82%
    05:00 +2°C° 0 mm 5 mps 736 mmHg 84%
    06:00 +3°C° 0 mm 4 mps 736 mmHg 86%
    07:00 +1°C° 0 mm 4 mps 737 mmHg 87%
    08:00 +1°C° 0 mm 4 mps 737 mmHg 88%
    09:00 +2°C° 0 mm 3 mps 738 mmHg 89%
    10:00 +3°C° 0 mm 3 mps 738 mmHg 87%
    11:00 +4°C° 0 mm 3 mps 738 mmHg 85%
    12:00 +4°C° 0 mm 3 mps 738 mmHg 83%
    13:00 +4°C° 0 mm 3 mps 738 mmHg 85%
    14:00 +4°C° 0 mm 3 mps 738 mmHg 86%
    15:00 +4°C° 0 mm 3 mps 738 mmHg 88%
    16:00 +3°C° 0.1 mm 3 mps 738 mmHg 90%
    17:00 +3°C° 0.1 mm 3 mps 739 mmHg 91%
    18:00 +3°C° 0.1 mm 3 mps 739 mmHg 93%
    19:00 +3°C° 0.1 mm 3 mps 739 mmHg 93%
    20:00 +4°C° 0.1 mm 2 mps 740 mmHg 94%
    21:00 +3°C° 0.1 mm 2 mps 740 mmHg 94%
    22:00 +3°C° 0 mm 2 mps 741 mmHg 94%
    23:00 +3°C° 0 mm 2 mps 741 mmHg 93%

    Day after tomorrow, 17 December, Monday

    Time Temperature Precipitation Wind Pressure Humidity
    00:00 +3°C° 0 mm 2 mps 741 mmHg 92%
    01:00 +3°C° 0 mm 2 mps 742 mmHg 92%
    02:00 +3°C° 0 mm 2 mps 742 mmHg 91%
    03:00 +2°C° 0 mm 3 mps 743 mmHg 91%
    04:00 +2°C° 0 mm 3 mps 743 mmHg 91%
    05:00 +1°C° 0 mm 3 mps 743 mmHg 91%
    06:00 +1°C° 0 mm 3 mps 744 mmHg 91%
    07:00 +1°C° 0 mm 3 mps 744 mmHg 91%
    08:00 +1°C° 0 mm 3 mps 745 mmHg 91%
    09:00 +2°C° 0 mm 3 mps 745 mmHg 91%
    10:00 +3°C° 0 mm 3 mps 745 mmHg 88%
    11:00 +4°C° 0 mm 4 mps 745 mmHg 86%
    12:00 +5°C° 0 mm 4 mps 745 mmHg 84%
    13:00 +5°C° 0 mm 5 mps 745 mmHg 86%
    14:00 +5°C° 0 mm 5 mps 745 mmHg 87%
    15:00 +5°C° 0 mm 5 mps 744 mmHg 88%
    16:00 +5°C° 0.2 mm 6 mps 744 mmHg 89%
    17:00 +5°C° 0.2 mm 6 mps 744 mmHg 89%
    18:00 +5°C° 0.2 mm 7 mps 744 mmHg 90%
    19:00 +6°C° 0.1 mm 7 mps 744 mmHg 89%
    20:00 +6°C° 0.1 mm 7 mps 744 mmHg 89%
    21:00 +6°C° 0.1 mm 7 mps 743 mmHg 88%
    22:00 +6°C° 0 mm 7 mps 743 mmHg 88%
    23:00 +8°C° 0 mm 7 mps 743 mmHg 87%

    18 December, Tuesday

    Time Temperature Precipitation Wind Pressure Humidity
    00:00 +8°C° 0 mm 7 mps 743 mmHg 87%
    01:00 +7°C° 0 mm 8 mps 743 mmHg 86%
    02:00 +7°C° 0 mm 8 mps 742 mmHg 86%
    03:00 +7°C° 0 mm 8 mps 742 mmHg 86%
    04:00 +7°C° 0.1 mm 8 mps 741 mmHg 85%
    05:00 +7°C° 0.1 mm 8 mps 741 mmHg 84%
    06:00 +7°C° 0.1 mm 9 mps 740 mmHg 84%
    07:00 +7°C° 0.1 mm 9 mps 739 mmHg 83%
    08:00 +7°C° 0.1 mm 9 mps 739 mmHg 82%
    09:00 +7°C° 0.1 mm 10 mps 738 mmHg 81%
    10:00 +7°C° 0.4 mm 10 mps 737 mmHg 78%
    11:00 +6°C° 0.4 mm 11 mps 736 mmHg 76%
    12:00 +6°C° 0.4 mm 11 mps 735 mmHg 74%
    13:00 +6°C° 0.5 mm 11 mps 735 mmHg 75%
    14:00 +6°C° 0.5 mm 11 mps 734 mmHg 76%
    15:00 +6°C° 0.5 mm 10 mps 733 mmHg 77%
    16:00 +6°C° 0.8 mm 10 mps 733 mmHg 79%
    17:00 +6°C° 0.8 mm 10 mps 733 mmHg 81%
    18:00 +6°C° 0.8 mm 9 mps 732 mmHg 82%
    19:00 +6°C° 1.4 mm 9 mps 732 mmHg 84%
    20:00 +6°C° 1.4 mm 8 mps 732 mmHg 86%
    21:00 +6°C° 1.4 mm 7 mps 732 mmHg 88%
    22:00 +5°C° 0.5 mm 7 mps 733 mmHg 85%
    23:00 +5°C° 0.5 mm 6 mps 734 mmHg 83%

    19 December, Wednesday

    Time Temperature Precipitation Wind Pressure Humidity
    00:00 +5°C° 0.5 mm 5 mps 734 mmHg 80%
    01:00 +5°C° 0 mm 5 mps 735 mmHg 82%
    02:00 +5°C° 0 mm 5 mps 736 mmHg 83%
    03:00 +5°C° 0 mm 5 mps 736 mmHg 85%
    04:00 +3°C° 0 mm 5 mps 737 mmHg 86%
    05:00 +4°C° 0 mm 4 mps 737 mmHg 87%
    06:00 +4°C° 0 mm 4 mps 738 mmHg 88%
    07:00 +4°C° 0 mm 4 mps 738 mmHg 89%
    08:00 +3°C° 0 mm 4 mps 739 mmHg 90%
    09:00 +3°C° 0 mm 3 mps 739 mmHg 90%
    10:00 +4°C° 0 mm 4 mps 739 mmHg 86%
    11:00 +5°C° 0 mm 4 mps 740 mmHg 82%
    12:00 +5°C° 0 mm 4 mps 740 mmHg 78%
    13:00 +5°C° 0 mm 4 mps 740 mmHg 78%
    14:00 +5°C° 0 mm 4 mps 740 mmHg 79%
    15:00 +5°C° 0 mm 4 mps 739 mmHg 80%
    16:00 +5°C° 0 mm 4 mps 740 mmHg 81%
    17:00 +4°C° 0 mm 4 mps 740 mmHg 83%
    18:00 +3°C° 0 mm 5 mps 740 mmHg 84%
    19:00 +3°C° 0 mm 5 mps 740 mmHg 85%
    20:00 +3°C° 0 mm 5 mps 740 mmHg 86%
    21:00 +2°C° 0 mm 5 mps 740 mmHg 87%
    22:00 +2°C° 0 mm 5 mps 740 mmHg 87%
    23:00 +2°C° 0 mm 5 mps 740 mmHg 88%

    20 December, Thursday

    Time Temperature Precipitation Wind Pressure Humidity
    00:00 +2°C° 0 mm 5 mps 740 mmHg 88%
    01:00 +2°C° 0.1 mm 5 mps 740 mmHg 88%
    02:00 +2°C° 0.1 mm 5 mps 740 mmHg 88%
    03:00 +3°C° 0.1 mm 5 mps 740 mmHg 87%
    04:00 +3°C° 0.3 mm 5 mps 741 mmHg 88%
    05:00 +3°C° 0.3 mm 5 mps 741 mmHg 88%
    06:00 +3°C° 0.3 mm 5 mps 741 mmHg 88%
    07:00 +3°C° 0 mm 5 mps 742 mmHg 88%
    08:00 +3°C° 0 mm 5 mps 742 mmHg 88%
    09:00 +4°C° 0 mm 4 mps 743 mmHg 88%
    10:00 +5°C° 0 mm 4 mps 743 mmHg 86%
    11:00 +5°C° 0 mm 5 mps 743 mmHg 83%
    12:00 +6°C° 0 mm 5 mps 743 mmHg 80%
    13:00 +6°C° 0 mm 5 mps 744 mmHg 81%
    14:00 +6°C° 0 mm 4 mps 744 mmHg 82%
    15:00 +5°C° 0 mm 4 mps 744 mmHg 83%
    16:00 +5°C° 0 mm 4 mps 744 mmHg 84%
    17:00 +5°C° 0 mm 4 mps 744 mmHg 85%
    18:00 +4°C° 0 mm 4 mps 743 mmHg 87%
    19:00 +3°C° 0.1 mm 5 mps 743 mmHg 86%
    20:00 +5°C° 0.1 mm 5 mps 742 mmHg 86%
    21:00 +4°C° 0.1 mm 6 mps 741 mmHg 85%
    22:00 +4°C° 1.1 mm 7 mps 740 mmHg 87%
    23:00 +5°C° 1.1 mm 8 mps 738 mmHg 88%
    Show more